Location: Newark
(50.0336°N, 22.0047°E)
Time: 01:30:22
(UTC+00:00)

Envisat - Pass Details

Date: 27 January 2020
Orbit: 764 x 766 km, 98.1° (Epoch: 21 February)

Event Time Altitude Azimuth Distance (km) Brightness Sun altitude
Rises 17:55:40 0° 221° (SW) 3,224 6.8 -25.4°
Reaches altitude 10° 17:59:26 10° 250° (WSW) 2,305 6.3 -26.0°
Maximum altitude 18:01:35 13° 275° (W) 2,132 6.3 -26.3°
Drops below altitude 10° 18:03:44 10° 300° (WNW) 2,312 6.3 -26.7°
Sets 18:07:33 0° 330° (NNW) 3,245 6.7 -27.3°
